Probability
0 0 0 0 0 0 0 0 0 0 0 1 4 11 14 8 2 1 1 3 4 3 1 2 7 12 11 9 7 5 5 5 5 3 1 0 1 2 2 1 1 1 1 0 0 0 0 0 0
0 0 0 0 0 0 0 0 0 0 0 0 3 8 10 6 3 2 1 1 2 1 0 1 3 5 6 5 5 3 2 3 3 2 0 0 0 1 1 0 0 0 0 0 0 0 0 0 0
0 0 0 0 0 0 0 0 0 0 0 0 1 2 3 3 2 1 0 0 0 0 0 0 0 1 2 4 4 2 1 1 1 0 0 0 0 0 0 0 0 0 0 0 0 0 0 0 0
0 0 0 0 0 0 0 0 0 0 0 0 0 0 0 2 4 3 1 0 0 0 0 0 0 1 5 9 9 6 4 2 1 0 0 0 0 0 0 0 0 0 0 0 0 0 1 1 0
0 0 0 0 0 0 0 0 0 0 0 0 0 0 1 7 14 10 2 0 0 0 0 0 1 5 12 17 17 13 8 6 3 1 1 0 0 0 0 0 0 0 0 0 0 0 1 1 1
0 0 0 0 0 0 0 0 0 0 0 0 0 0 2 13 22 14 3 1 0 1 1 1 2 8 17 21 18 14 11 8 5 3 1 0 0 0 0 0 0 0 0 0 0 0 1 1 0
0 0 0 0 0 0 0 0 0 0 0 0 0 0 4 16 23 17 7 3 2 3 3 2 2 6 13 14 11 9 8 6 4 3 2 1 0 0 0 0 0 0 0 0 0 0 0 0 0
0 0 0 0 0 0 0 0 0 0 1 1 0 1 7 19 30 29 23 14 8 5 4 2 1 2 4 4 3 3 4 4 3 4 4 3 1 0 0 0 0 0 0 0 0 0 0 0 0
0 0 0 0 0 0 0 0 1 3 4 4 4 7 19 36 49 53 48 32 14 5 2 1 0 0 0 0 0 0 1 2 3 4 5 4 1 0 0 0 0 0 0 0 0 0 0 0 0
0 0 0 0 0 0 0 1 3 6 8 8 11 18 34 53 67 71 61 39 19 7 3 0 0 0 0 0 0 0 0 1 1 2 2 2 1 0 0 0 0 0 0 0 0 0 0 0 0
0 0 0 0 0 0 0 1 3 7 8 9 15 25 40 56 67 67 55 37 21 12 6 2 0 0 0 0 0 0 0 0 0 0 0 0 0 0 0 0 0 0 0 0 0 0 0 0 0
0 0 0 0 0 0 0 1 2 4 5 7 14 25 36 46 52 51 44 32 20 12 7 2 0 0 0 0 0 0 0 0 0 0 0 0 0 0 0 0 0 0 0 0 0 0 0 0 0
0 0 0 0 0 0 0 0 1 2 4 8 15 23 31 37 41 43 40 30 18 9 4 2 0 0 0 0 0 0 0 0 0 0 0 0 0 0 0 0 0 0 0 0 0 0 0 0 0
0 0 0 0 0 0 0 0 0 1 5 11 18 22 24 32 39 42 38 29 17 8 3 1 1 0 0 0 0 0 0 0 0 0 0 0 0 0 0 0 0 0 0 0 0 0 0 0 0
0 0 0 0 0 0 0 0 0 2 6 13 21 23 23 29 39 41 35 27 17 8 2 1 1 1 1 0 0 0 1 0 0 0 0 0 0 0 0 0 0 0 0 0 0 0 0 0 0
0 0 0 0 0 0 0 0 1 3 9 18 27 32 30 30 32 32 28 24 17 8 3 1 1 2 1 0 0 0 0 0 0 0 0 0 0 0 0 0 0 0 0 0 0 0 0 0 0
0 0 0 0 0 0 0 0 1 7 17 30 40 44 40 33 26 21 20 18 14 8 4 2 3 4 2 0 0 0 0 0 0 0 0 0 0 0 0 0 0 0 0 0 0 0 0 0 0
0 0 0 0 0 0 0 0 2 11 27 45 56 59 54 41 27 17 13 11 8 6 5 4 4 4 3 1 0 0 0 0 0 0 0 0 0 0 0 0 0 0 0 0 0 0 0 0 0
0 0 0 0 0 0 0 0 2 11 30 54 70 75 70 55 35 20 12 7 4 4 5 4 3 2 1 0 0 0 0 0 0 0 0 0 0 0 0 0 0 0 0 0 0 0 0 0 0
0 0 0 0 0 0 0 0 1 7 24 52 75 84 82 68 46 26 13 6 4 3 3 2 1 0 0 0 0 0 0 0 0 0 0 0 0 0 0 0 0 0 0 0 0 0 0 0 0
0 0 0 0 0 0 0 0 2 8 25 52 72 80 79 69 51 30 14 6 3 2 1 0 0 0 0 0 0 0 0 0 0 0 0 0 0 0 0 0 0 0 0 0 0 0 0 0 0
0 0 0 0 0 0 0 0 4 16 36 54 64 66 64 55 42 25 11 5 2 1 0 0 0 0 0 0 0 0 0 0 0 0 0 0 0 0 0 0 0 0 0 0 0 0 0 0 0
0 0 0 0 0 0 0 0 5 22 43 55 55 52 45 34 23 13 6 2 1 0 0 0 0 0 0 0 0 0 0 0 0 0 0 0 0 0 0 0 0 0 0 0 0 0 0 0 0
0 0 0 0 0 0 0 0 4 19 42 55 53 41 27 17 8 3 1 1 0 0 0 0 0 0 0 0 0 0 0 0 0 0 0 0 0 0 0 0 0 0 0 0 0 0 0 0 0
0 0 0 0 0 0 0 0 2 15 39 54 46 27 13 6 2 0 0 0 0 0 0 0 0 0 0 0 0 0 0 0 0 0 0 0 0 0 0 0 0 0 0 0 0 0 0 0 0
0 0 0 0 0 0 0 0 2 15 34 41 28 13 4 1 0 0 0 0 0 0 0 0 0 0 0 0 0 0 0 0 0 0 0 0 0 0 0 0 0 0 0 0 0 0 0 0 0
0 0 0 0 0 0 0 0 3 15 28 27 14 3 0 0 0 0 0 0 0 0 0 0 0 0 0 0 0 0 0 0 0 0 0 0 0 0 0 0 0 0 0 0 0 0 0 0 0
0 0 0 0 0 0 0 0 3 14 26 24 10 2 0 0 0 0 0 0 0 0 0 0 0 0 0 0 0 0 0 0 0 0 0 0 0 0 0 0 0 0 0 0 0 0 0 0 0
0 0 0 0 0 0 0 0 3 12 21 19 9 2 0 0 0 0 0 0 0 0 0 0 0 0 0 0 0 0 0 0 0 0 0 0 0 0 0 0 0 0 0 0 0 0 0 0 0
0 0 0 0 0 0 0 0 2 9 16 14 6 1 0 0 0 0 0 0 0 0 0 0 0 0 0 0 0 0 0 0 0 0 0 0 0 0 0 0 0 0 0 0 0 0 0 0 0
Wind_Speed
5 4 1 4 7 5 4 6 3 2 2 2 9 12 12 8 5 4 2 11 12 10 7 10 11 12 12 12 12 12 12 13 12 11 11 10 10 9 9 9 9 9 10 10 10 10 9 8 7
3 2 4 5 6 2 5 5 2 1 4 7 9 11 10 7 8 10 6 10 12 10 6 8 11 11 11 10 11 12 12 13 12 11 11 10 9 8 8 8 8 9 9 10 9 8 8 7 6
3 1 4 5 3 4 4 3 3 2 3 5 5 5 7 7 8 7 8 13 10 8 6 8 12 11 10 10 10 11 12 12 12 10 9 8 7 7 7 7 8 8 8 8 8 8 7 6 6
2 4 5 4 4 8 7 6 5 5 3 3 7 7 6 5 6 12 15 14 11 9 7 8 12 12 11 10 9 10 11 11 11 10 9 7 6 5 5 5 6 6 6 7 7 6 5 4 4
3 4 3 2 7 8 9 9 9 7 5 4 8 8 5 5 17 20 16 13 12 8 6 7 11 11 11 10 10 10 10 10 10 9 8 7 6 5 4 4 5 5 5 6 5 5 3 3 3
4 4 2 4 7 6 5 8 7 8 8 7 9 8 5 9 16 17 14 12 11 11 7 7 10 12 10 10 9 9 9 9 9 8 8 6 5 4 3 3 4 4 4 4 4 3 3 3 3
3 2 2 5 6 5 6 6 9 10 9 7 8 9 7 8 12 14 13 11 10 11 9 6 6 7 9 9 8 8 8 8 8 7 7 6 4 4 4 4 3 3 4 4 4 4 4 4 5
5 2 3 4 5 5 5 4 7 11 8 7 7 11 9 11 13 15 13 10 8 8 8 7 6 5 5 5 8 8 8 8 7 7 7 6 5 5 5 4 4 5 5 5 4 4 4 5 6
4 1 4 5 4 3 2 5 3 6 10 4 4 8 14 20 19 17 13 9 6 7 5 5 5 5 5 4 7 8 9 8 7 6 8 6 3 3 4 5 6 6 5 5 5 5 5 6 7
5 4 9 7 6 2 1 5 7 6 10 6 7 10 18 21 20 19 16 12 9 7 6 5 5 4 4 5 4 3 4 4 4 3 4 4 3 3 4 5 7 7 6 6 6 6 6 5 4
4 7 10 9 7 0 1 0 5 12 7 12 17 19 20 20 19 19 16 13 10 7 4 4 3 3 4 3 3 2 2 2 3 4 4 4 3 3 2 2 3 3 5 3 4 4 3 4 4
4 9 8 8 4 1 1 1 2 7 11 15 21 24 21 20 19 18 16 12 9 6 3 3 2 2 4 4 4 4 3 2 2 3 4 4 3 3 3 3 3 3 2 2 2 3 4 5 6
5 8 8 8 6 2 1 1 1 2 5 11 14 17 18 18 16 14 14 12 10 7 4 3 3 3 4 4 3 4 4 4 3 2 3 4 3 4 3 3 3 3 3 3 3 3 4 4 4
6 7 10 9 5 2 1 3 2 2 7 11 13 13 14 15 18 17 16 16 14 11 7 4 4 4 4 3 3 3 3 3 3 2 2 3 3 3 3 2 2 3 3 3 2 2 2 2 2
4 7 10 7 3 2 4 6 6 2 9 11 11 11 13 14 18 18 17 18 18 15 10 8 6 4 3 3 2 3 3 3 3 2 2 3 3 3 3 2 1 1 1 1 1 1 2 2 3
6 5 6 10 4 4 3 5 9 0 13 13 15 16 16 15 16 16 16 16 16 15 11 6 3 3 4 4 4 3 4 4 3 3 3 4 4 4 3 4 3 3 3 3 3 3 3 4 3
4 3 6 10 6 4 1 6 7 5 18 18 18 18 17 16 13 11 11 10 9 7 6 3 4 4 5 5 5 5 5 5 5 5 5 6 7 6 5 4 4 4 4 4 4 3 3 3 5
5 5 7 9 8 6 7 8 4 7 21 20 19 18 17 16 12 9 7 6 6 6 6 6 6 5 5 4 5 5 7 6 6 6 6 7 6 7 5 4 4 4 4 4 3 3 3 3 4
6 7 11 15 11 6 6 5 6 12 20 20 18 18 18 15 11 8 7 7 7 7 7 7 7 6 5 4 4 4 4 4 5 6 7 8 7 6 5 4 4 4 4 4 4 3 4 4 4
8 10 13 14 9 1 2 3 4 9 16 20 22 20 20 17 14 11 8 7 7 7 8 9 9 8 7 5 4 4 3 4 3 4 6 7 7 6 6 5 4 4 4 5 5 4 3 3 4
11 11 13 11 6 2 5 4 4 6 12 16 16 18 18 19 17 14 12 10 10 10 10 10 10 11 10 8 5 5 4 3 4 5 5 6 7 7 6 6 5 5 4 4 4 4 3 2 2
13 15 12 9 4 4 4 3 2 5 10 13 15 15 16 17 16 15 14 13 12 11 11 12 11 11 10 9 8 8 6 4 4 3 4 5 7 7 6 5 5 4 3 3 4 3 1 2 2
14 15 10 7 4 2 1 5 5 6 9 11 12 14 15 15 16 16 14 13 12 12 11 10 11 10 9 9 8 8 7 4 3 4 5 6 5 5 5 4 4 3 2 2 3 2 2 1 2
10 7 1 3 5 3 6 5 7 9 15 17 15 16 16 16 16 15 13 12 11 10 10 9 9 9 8 9 9 8 8 6 6 6 5 4 4 4 5 5 4 3 3 3 3 3 4 3 4
4 4 1 4 3 7 5 4 8 9 16 21 21 19 17 16 16 16 14 12 10 9 8 8 9 8 8 8 8 7 7 6 5 4 4 4 3 3 5 5 4 4 4 4 4 4 4 4 5
7 10 10 8 7 6 3 4 5 6 16 17 18 19 18 16 15 16 14 13 11 9 8 8 8 7 7 7 6 6 5 4 3 3 2 2 2 3 3 5 5 5 5 6 4 3 4 4 5
7 7 10 9 6 3 3 1 4 7 16 18 19 19 18 17 17 16 14 12 11 10 8 8 8 7 6 6 5 5 4 3 3 3 2 2 3 3 4 5 5 5 5 5 5 3 4 5 5
9 8 6 7 7 5 4 6 9 14 17 18 18 17 16 15 15 14 12 11 10 9 8 7 7 7 5 5 4 3 2 2 2 2 3 4 4 4 5 5 4 4 4 4 4 3 4 6 6
3 3 4 5 6 8 6 9 11 22 22 20 17 16 16 15 15 13 12 11 10 8 7 7 6 6 4 3 2 2 2 2 3 3 4 4 4 5 4 4 3 2 2 2 3 4 5 7 8
7 8 7 6 6 6 5 10 5 17 16 16 17 16 15 15 14 14 13 11 9 8 7 6 5 5 3 2 1 1 2 3 3 4 5 4 4 4 3 2 1 0 0 1 2 5 7 8 9
Wind_Direction
298 289 29 45 49 42 282 261 269 309 66 62 99 108 110 106 141 159 113 126 128 141 147 143 138 134 133 136 138 136 134 130 127 124 121 120 118 116 113 113 116 120 124 127 130 133 137 140 142
294 315 53 55 78 24 284 255 267 303 130 126 97 100 90 80 90 108 116 127 134 144 143 142 138 133 129 128 135 137 136 135 132 130 128 128 128 127 126 127 129 132 136 141 145 150 154 159 163
292 42 77 70 115 189 248 253 213 134 129 134 103 75 81 107 111 119 139 140 138 136 134 140 135 127 120 117 125 134 137 137 136 133 132 131 132 134 138 141 142 144 149 156 163 169 176 182 190
44 46 55 72 244 234 231 244 200 142 93 89 108 75 63 97 114 127 140 140 134 132 132 132 127 121 113 108 114 128 135 137 137 137 136 133 130 132 141 151 155 159 163 170 174 178 193 212 220
65 74 59 296 247 239 224 217 181 147 131 100 92 87 65 67 114 128 138 138 132 123 115 120 119 116 113 112 116 126 133 136 137 137 136 132 129 130 136 149 160 169 177 183 179 176 190 224 256
55 73 93 258 258 274 217 193 145 112 116 118 105 103 97 117 123 134 137 133 128 125 117 116 121 121 118 119 121 126 132 136 136 137 136 134 132 132 141 154 163 170 173 169 167 179 199 231 262
117 98 235 258 287 292 206 175 134 132 140 152 126 104 118 134 134 131 128 125 124 125 124 118 120 123 126 126 127 131 135 139 142 143 141 141 145 156 166 164 161 160 160 168 181 202 227 254 274
157 85 284 275 273 251 198 149 141 134 138 132 120 130 152 162 139 125 122 119 120 124 129 131 127 122 124 132 143 147 149 154 158 156 152 154 157 160 161 151 163 171 178 187 203 225 248 273 291
138 86 265 258 271 257 188 119 111 92 113 114 122 146 151 149 138 129 124 120 126 128 130 132 132 138 141 152 169 166 167 172 172 171 168 158 155 155 160 172 182 187 196 208 225 246 269 288 301
128 182 242 235 265 265 195 140 132 98 104 111 101 112 136 147 145 141 142 146 149 154 161 146 149 158 165 179 165 170 177 183 180 181 180 165 166 180 183 192 196 204 212 223 235 251 270 284 299
187 215 258 272 260 176 55 127 118 126 153 166 155 150 152 151 151 150 149 150 151 153 150 140 149 176 189 187 169 181 184 189 197 199 194 179 175 186 178 177 211 226 229 240 266 272 274 275 275
246 263 263 265 270 45 83 50 106 159 191 181 164 157 155 155 155 151 148 147 135 128 124 105 128 208 216 194 185 185 184 192 203 209 197 181 182 187 180 188 208 224 230 230 255 264 265 269 274
272 273 293 285 281 257 52 65 151 236 186 165 155 152 154 150 142 132 130 122 112 103 88 96 124 200 211 195 200 186 187 188 188 180 178 174 180 193 197 207 215 234 236 227 237 253 266 266 274
265 292 308 305 298 305 15 330 12 277 146 150 149 149 143 138 132 128 126 124 119 112 118 141 167 180 170 167 171 164 160 156 146 142 127 128 141 156 172 211 228 254 251 232 223 238 257 275 301
316 333 325 310 324 321 39 340 305 271 129 133 127 115 113 121 127 132 135 134 133 135 152 172 171 158 136 126 124 114 119 120 122 116 96 96 106 117 122 114 109 289 309 337 24 345 13 13 4
4 4 318 297 301 308 72 274 280 125 111 108 104 101 102 109 123 134 138 138 142 148 155 168 139 109 88 78 72 72 78 80 70 55 47 51 60 72 72 58 38 28 39 35 41 25 15 13 2
3 323 289 298 298 306 222 244 271 119 111 112 110 110 110 111 115 126 132 134 135 130 116 94 63 68 71 73 71 68 62 56 54 53 49 42 42 46 58 55 39 40 48 37 29 30 19 1 349
257 280 291 287 291 311 273 237 227 118 116 117 117 116 117 119 122 123 115 100 83 71 67 64 57 56 64 65 63 60 57 51 51 51 47 45 40 41 48 51 38 42 48 37 26 26 21 8 344
239 268 278 280 286 310 276 216 160 128 119 121 121 121 119 118 121 116 106 94 82 69 67 64 60 52 57 56 56 58 54 47 47 48 43 41 35 33 39 32 30 34 44 39 27 21 19 14 4
248 261 271 283 284 223 60 63 113 131 131 133 132 130 129 127 124 120 113 100 88 82 77 73 66 60 58 64 67 77 84 66 61 41 36 34 32 25 28 25 25 28 35 31 28 35 25 3 19
251 240 248 255 287 29 98 27 43 74 107 116 122 127 129 131 130 126 114 100 92 84 82 81 72 67 63 64 67 63 51 41 29 24 23 20 25 27 33 37 41 36 38 26 18 33 25 346 343
253 249 237 244 253 265 143 172 218 124 112 121 127 130 129 128 125 121 116 108 100 93 87 81 75 70 64 63 66 67 64 51 26 18 22 14 20 29 38 43 41 36 33 21 356 20 352 332 313
234 248 230 221 217 273 322 155 225 149 142 144 138 133 130 129 127 122 117 112 105 98 91 84 79 72 65 63 63 63 57 48 33 25 21 13 8 15 19 27 24 15 4 347 331 326 306 279 269
240 239 258 59 77 272 249 188 222 194 175 156 147 140 137 133 128 123 118 113 105 97 91 86 81 72 64 62 60 61 58 48 36 21 9 359 350 352 360 6 3 349 334 317 305 293 288 278 273
251 157 23 332 338 253 251 206 234 197 165 157 151 146 142 138 135 131 126 119 112 104 98 91 85 74 66 66 62 60 59 51 38 13 1 354 343 333 337 347 334 329 321 313 309 305 301 294 291
237 164 173 199 223 261 309 228 277 159 144 145 145 145 145 143 140 137 133 128 123 116 107 99 92 84 73 71 70 59 55 48 26 7 352 339 316 298 313 324 324 325 327 336 339 333 326 330 314
220 201 185 162 181 193 246 168 38 105 138 149 152 151 151 149 145 139 134 130 124 118 113 111 104 93 82 79 80 59 45 36 9 347 334 316 307 312 329 327 330 335 349 4 13 8 353 340 322
198 181 117 135 167 221 230 204 188 176 172 165 160 156 150 146 140 135 131 124 119 117 113 110 108 105 98 85 70 69 32 360 338 330 325 317 313 317 325 332 342 2 30 42 36 0 335 326 309
246 193 155 149 163 176 221 246 207 186 179 170 162 155 150 144 139 132 127 122 118 114 113 110 104 102 98 94 84 48 345 325 325 319 313 312 311 318 325 331 355 43 61 35 12 334 323 314 306
216 213 179 179 222 181 190 254 256 179 170 159 153 151 145 139 133 128 124 121 117 116 116 112 108 106 108 103 73 340 319 322 325 320 316 315 316 321 320 326 1 48 111 331 326 317 318 308 308